Weather History for Newburgh, NY

Change the Weather History Date:

Friday, April 19, 2013

  Actual Average Record
Temperature  
Mean Temperature 64 °F -  
Max Temperature 75 °F 59 °F 95 °F (1976)
Min Temperature 53 °F 37 °F 25 °F (1990)
Degree Days  
Heating Degree Days 1    
Growing Degree Days 14 (Base 50)    
Moisture  
Dew Point 58 °F    
Average Humidity 86    
Maximum Humidity 100    
Minimum Humidity 65    
Precipitation  
Precipitation 0.00 in - - ()
Sea Level Pressure  
Sea Level Pressure 29.83 in    
Wind  
Wind Speed 10 mph (South)    
Max Wind Speed 21 mph    
Max Gust Speed 38 mph    
Visibility 8 miles    
Events Rain    
Averages and records for this station are not official NWS values.
T = Trace of Precipitation, MM = Missing Value Source: NWS Daily Summary

Daily Weather History Graph

Daily Weather History Graph

Search for Another Location

Airport:

Trip Planner

Search our weather history database for the weather conditions in past years. The results will help you decide how hot, cold, wet, or windy it might be!

Date:

Astronomy

Apr. 19, 2013 Rise Set
Actual Time 6:10 AM EDT 7:41 PM EDT
Civil Twilight 5:41 AM EDT 8:10 PM EDT
Nautical Twilight 5:06 AM EDT 8:45 PM EDT
Astronomical Twilight 4:28 AM EDT 9:23 PM EDT
Moon 1:19 PM EDT (4/19) 2:28 AM EDT (4/19)
Length of Visible Light 14h 29m
Length of Day
13h 31m
First Quarter, 61% of the Moon is Illuminated
Apr 19
First Quarter
Apr 25
Full
May 2
Last Quarter
May 9
New
May 18
First Quarter

Hourly Weather History & Observations

Time (EDT) Temp. Dew Point Humidity Pressure Visibility Wind Dir Wind Speed Gust Speed Precip Events Conditions
12:45 AM 53.6 °F 53.6 °F 100% 30.08 in 4.0 mi SSE 6.9 mph - N/A   Overcast
1:45 AM 53.6 °F 51.8 °F 94% 30.06 in 4.0 mi Variable 4.6 mph - N/A   Overcast
2:45 AM 55.4 °F 53.6 °F 94% 30.03 in 5.0 mi Variable 4.6 mph - N/A   Overcast
3:45 AM 55.4 °F 53.6 °F 94% 29.98 in 3.0 mi SSE 9.2 mph - N/A   Overcast
4:45 AM 57.2 °F 55.4 °F 94% 29.99 in 3.0 mi Variable 5.8 mph - N/A   Overcast
5:45 AM 59.0 °F 57.2 °F 94% 29.96 in 4.0 mi SSW 11.5 mph 18.4 mph N/A   Overcast
6:45 AM 59.0 °F 57.2 °F 94% 29.95 in 4.0 mi SSW 9.2 mph 18.4 mph N/A   Overcast
7:45 AM 60.8 °F 57.2 °F 88% 29.96 in 4.0 mi SSW 9.2 mph 19.6 mph N/A   Overcast
8:45 AM 62.6 °F 59.0 °F 88% 29.94 in 4.0 mi SSW 9.2 mph 19.6 mph N/A   Overcast
9:45 AM 64.4 °F 59.0 °F 83% 29.92 in 7.0 mi SSW 17.3 mph - N/A   Overcast
10:45 AM 66.2 °F 59.0 °F 78% 29.88 in 7.0 mi SSW 18.4 mph - N/A   Overcast
11:45 AM 64.4 °F 60.8 °F 88% 29.87 in 4.0 mi SSW 17.3 mph - N/A   Overcast
12:45 PM 68.0 °F 60.8 °F 78% 29.82 in 7.0 mi SW 17.3 mph - N/A   Overcast
1:45 PM 66.2 °F 62.6 °F 88% 29.81 in 7.0 mi SE 9.2 mph - N/A   Overcast
2:45 PM 69.8 °F 60.8 °F 73% 29.76 in 20.0 mi ESE 12.7 mph - N/A   Mostly Cloudy
3:45 PM 75.2 °F 62.6 °F 65% 29.70 in 20.0 mi SSE 13.8 mph 23.0 mph N/A   Mostly Cloudy
4:45 PM 69.8 °F 60.8 °F 73% 29.67 in 20.0 mi SSE 16.1 mph 23.0 mph N/A   Mostly Cloudy
5:45 PM 69.8 °F 60.8 °F 73% 29.67 in 15.0 mi SSE 9.2 mph 19.6 mph N/A   Mostly Cloudy
6:45 PM 68.0 °F 60.8 °F 78% 29.65 in 15.0 mi South 11.5 mph 18.4 mph N/A   Mostly Cloudy
7:45 PM 68.0 °F 60.8 °F 78% 29.63 in 10.0 mi South 19.6 mph 23.0 mph N/A   Mostly Cloudy
8:45 PM 66.2 °F 62.6 °F 88% 29.62 in 10.0 mi South 11.5 mph - N/A   Mostly Cloudy
9:45 PM 64.4 °F 60.8 °F 88% 29.68 in 5.0 mi WSW 20.7 mph 38.0 mph N/A Rain Rain
10:45 PM 60.8 °F 60.8 °F 100% 29.69 in 5.0 mi WSW 6.9 mph - N/A   Mostly Cloudy
11:45 PM 53.6 °F 50.0 °F 88% 29.69 in 5.0 mi West 19.6 mph 32.2 mph N/A Rain Rain